Tracking 22994 objects as of 8-May-2021
HD Live streaming from Space Station
objects crossing your sky now

SATCOM 1

Track SATCOM 1 now!
SATCOM 1 is classified as:


NORAD ID: 8476
Int'l Code: 1975-117A
Perigee: 35,927.8 km
Apogee: 36,034.4 km
Inclination: 11.9 °
Period: 1,445.7 minutes
Semi major axis: 42352 km
RCS: 2.5118 m2 (large)
Launch date: December 13, 1975
Source: United States (US)
Launch site: AIR FORCE EASTERN TEST RANGE (AFETR)
aabbcc
Your satellite tracking list
Your tracking list is empty




NASA's NSSDC Master Catalog

Two Line Element Set (TLE):
1 08476U 75117A   21127.85642383 -.00000267  00000-0  00000-0 0  9994
2 08476  11.8688 320.7209 0012581 211.4406 337.3833  0.99607114 27777
Source of the keplerian elements: AFSPC